Theta_e
314 314 314 312 310 308 307 305 299 312 310 297 298 294 295 295 295 298 296 296 292 291 293 292 293 295 301 308 306 305 311 306 302 306 313 313 310 308 309 303 302 305 305 305
314 314 313 312 310 310 305 300 303 310 308 292 293 296 295 296 294 294 293 292 293 294 291 289 294 295 303 304 304 303 306 305 300 303 310 311 308 309 309 310 307 305 301 304
314 314 313 312 311 310 307 302 295 302 302 301 296 294 293 291 297 294 294 294 295 292 290 293 291 293 299 303 304 313 308 305 304 301 306 311 307 308 309 308 305 305 306 308
314 314 313 312 311 310 307 301 296 298 292 295 295 295 293 291 290 296 295 293 293 291 287 289 290 293 295 298 306 306 307 302 306 308 310 311 308 307 308 307 309 305 309 310
314 314 313 312 311 310 304 297 294 297 295 296 294 294 292 291 292 292 291 291 293 293 289 291 289 292 292 293 299 300 305 302 306 305 308 309 308 308 308 309 309 310 310 311
313 313 313 313 312 310 303 305 302 295 292 293 291 292 293 293 295 295 295 294 292 291 292 296 297 297 297 297 296 297 300 301 301 299 307 307 304 308 309 310 311 311 308 315
313 313 313 313 312 311 310 306 299 291 287 291 292 293 294 293 295 293 295 295 293 296 301 299 299 298 297 297 298 300 296 298 300 298 304 296 308 315 313 311 312 314 314 317
313 313 313 313 312 312 312 308 298 293 287 291 292 292 293 296 297 295 295 297 298 302 297 292 290 292 293 295 297 298 300 298 296 296 298 304 308 311 311 309 310 315 315 317
313 312 312 312 313 312 313 307 305 296 289 289 295 293 294 292 294 295 295 301 303 299 294 292 286 286 292 290 294 300 300 301 296 298 295 295 306 313 316 315 305 316 316 316
311 311 312 313 313 312 311 308 308 299 290 293 294 291 291 296 295 293 295 297 296 300 291 289 287 287 294 290 290 292 293 294 293 295 294 301 308 311 314 303 308 320 321 320
311 312 312 313 313 313 311 308 309 300 293 295 298 299 295 295 295 291 296 294 295 296 290 291 291 290 292 293 294 294 293 291 292 295 294 293 309 309 305 314 317 316 316 317
311 311 312 313 313 313 313 306 310 307 297 297 301 302 303 301 300 297 296 295 295 295 292 294 293 290 292 292 288 299 292 297 295 297 297 311 308 308 311 311 311 313 313 314
311 312 312 312 313 313 312 310 306 303 297 297 297 300 305 306 306 306 295 298 299 298 299 294 294 290 295 290 291 294 298 302 296 298 302 304 306 309 310 310 310 311 312 312
311 312 312 313 313 313 312 308 307 304 298 291 298 307 304 308 307 306 304 302 302 300 299 293 292 290 297 292 294 293 296 298 297 297 301 304 305 306 308 309 310 310 311 311
311 312 312 312 312 312 313 317 309 307 300 294 296 303 306 307 306 304 304 301 299 297 294 292 290 294 294 296 296 294 299 297 294 295 302 303 305 307 309 308 307 309 309 310
311 312 312 312 312 310 315 303 308 309 305 296 291 302 302 304 304 303 302 303 300 297 291 289 292 296 292 288 288 295 298 299 300 298 303 303 306 309 309 308 309 310 310 311
312 312 312 311 311 314 308 304 307 309 307 297 293 297 303 303 302 302 300 300 295 292 289 287 288 290 292 288 285 291 294 295 295 298 300 299 301 302 308 309 309 310 311 312
312 311 311 310 308 308 308 310 308 309 302 301 295 296 300 303 298 296 298 293 292 291 290 290 288 289 288 284 290 294 300 304 307 299 299 299 302 304 306 309 309 308 309 310
311 311 311 314 311 309 309 309 308 311 304 300 297 290 295 303 300 299 296 294 287 292 288 289 288 285 285 288 294 297 301 303 305 307 304 302 299 302 304 306 307 307 307 309
311 312 313 309 312 310 310 305 301 302 306 306 296 299 298 300 301 298 297 295 294 289 295 294 289 287 297 299 299 301 302 305 307 302 302 303 302 303 304 305 307 309 310 311
314 314 313 316 311 312 308 308 306 308 306 306 308 307 303 306 299 299 301 299 298 292 296 295 289 288 295 301 300 302 303 304 303 304 304 306 309 307 307 307 309 309 310 311
313 316 317 319 312 309 305 302 305 303 301 306 305 307 313 310 308 301 306 300 300 290 299 292 285 293 300 302 302 302 303 304 304 304 304 304 306 309 311 309 308 308 309 311
322 316 310 309 307 296 297 294 299 300 305 307 308 306 311 314 312 309 303 297 296 301 292 286 292 299 302 303 303 303 304 303 304 305 305 305 305 307 307 306 307 307 306 306
314 307 293 302 300 301 301 301 302 305 306 307 309 305 309 308 303 302 296 300 298 291 286 287 294 300 303 304 304 302 301 304 303 303 306 305 304 304 307 307 307 306 305 305
309 308 296 302 306 306 306 306 305 306 309 308 308 309 307 304 299 300 297 294 290 289 288 294 299 303 304 304 303 303 303 302 304 305 304 306 305 304 305 307 309 306 306 305
311 308 304 306 304 304 304 304 303 307 307 309 308 303 300 298 297 294 292 290 288 293 298 301 303 304 304 305 305 305 304 303 303 306 305 306 307 305 305 306 306 306 307 306
307 306 310 308 305 304 304 305 304 308 305 301 303 297 295 300 294 291 294 292 295 298 301 303 306 305 306 306 305 304 304 305 303 306 306 306 308 308 306 303 304 306 306 305
Wind_Speed
18 19 19 19 22 23 15 10 11 13 7 13 4 7 15 13 18 9 17 24 16 12 11 18 17 21 15 29 26 17 18 22 22 25 27 32 28 28 25 13 21 15 15 5
18 18 18 18 17 20 11 10 14 9 12 10 10 15 19 17 11 10 13 18 15 15 11 11 10 16 24 35 30 13 13 14 21 26 23 32 32 29 28 22 19 19 15 6
19 18 17 15 14 17 10 8 8 10 11 12 17 18 16 16 9 3 11 27 13 13 15 15 9 15 16 32 30 14 7 9 21 19 20 18 29 29 29 28 18 16 17 7
19 19 17 14 12 13 9 5 6 4 8 12 20 19 16 18 10 11 13 13 10 13 13 15 7 10 23 24 25 19 11 14 18 27 24 22 27 26 30 31 20 22 18 18
20 19 17 14 12 11 9 2 4 5 11 17 17 18 11 21 16 14 15 18 8 15 12 13 14 14 13 11 22 23 19 9 11 18 22 20 18 31 30 29 29 23 25 17
21 20 17 15 11 4 4 2 2 3 6 13 12 13 15 22 22 15 16 15 16 18 11 15 16 14 15 18 24 19 14 11 8 16 18 22 19 15 27 25 26 24 20 14
21 21 18 16 12 9 5 2 2 2 6 10 12 14 21 18 20 20 16 18 17 17 16 15 17 18 20 19 21 16 12 13 10 10 12 18 10 11 16 13 25 24 18 15
22 21 20 17 14 13 8 2 4 3 5 9 15 16 17 19 20 21 13 17 12 15 16 15 15 14 15 19 19 14 11 10 8 6 7 7 12 14 18 11 8 5 18 18
22 22 21 18 15 14 8 5 4 3 2 7 14 6 13 13 13 19 3 12 14 12 9 11 16 5 9 13 16 14 11 10 9 9 7 12 9 16 5 12 12 9 4 2
24 23 20 19 17 14 6 3 8 3 3 6 10 5 4 7 10 10 11 14 15 13 8 11 8 9 7 6 20 16 11 8 10 10 7 4 12 17 4 9 7 17 20 13
23 22 20 19 17 15 7 3 8 5 4 7 9 9 7 7 6 6 13 8 7 6 3 7 5 3 5 8 10 1 9 13 12 12 13 11 19 11 8 8 12 15 17 18
22 21 19 18 16 15 8 3 4 6 1 4 4 8 11 16 16 10 4 11 13 4 6 7 6 12 8 13 8 12 6 7 6 9 12 10 14 14 14 11 8 11 11 13
21 20 19 17 15 12 5 1 3 2 2 4 6 9 9 13 15 13 4 4 6 7 10 7 7 10 11 11 12 14 15 13 8 11 16 17 12 12 12 11 10 9 11 11
19 19 18 17 13 8 5 3 5 1 1 2 3 8 6 7 12 14 11 12 10 8 7 8 7 8 12 13 18 16 13 19 16 17 17 15 19 16 16 16 14 13 13 14
19 19 17 14 10 5 6 3 6 3 0 3 6 11 11 14 13 5 7 8 6 5 3 2 2 5 7 10 11 13 15 18 15 17 22 20 19 18 17 17 19 17 15 16
19 17 14 11 4 4 1 2 3 4 2 1 3 3 1 4 9 12 6 3 3 2 1 1 3 4 1 4 5 11 20 27 28 25 25 27 25 25 26 24 18 14 15 15
16 11 7 1 2 4 2 5 4 5 3 1 3 3 2 4 2 2 3 4 4 3 1 2 2 1 3 3 8 17 21 29 32 32 28 33 32 21 21 20 21 18 18 19
9 3 1 1 11 11 3 5 3 1 1 1 3 3 1 3 2 2 1 2 1 1 2 2 2 1 1 6 16 26 24 16 8 22 27 33 26 24 24 21 20 18 17 18
4 5 3 4 3 1 3 7 6 2 3 2 2 2 3 2 2 2 3 2 1 1 2 2 1 2 1 13 25 27 24 17 16 12 12 9 18 22 22 22 21 20 19 18
6 5 5 4 5 15 9 2 2 3 3 1 2 1 2 1 1 1 2 3 0 1 1 3 1 3 16 19 24 27 29 25 15 13 13 5 12 16 20 22 20 19 18 17
5 6 3 6 9 3 4 2 2 2 1 4 3 5 3 4 2 2 1 1 2 3 3 3 5 9 21 21 23 25 28 27 24 24 24 22 5 10 9 11 14 14 17 16
4 2 2 3 5 1 5 6 5 5 5 7 7 8 3 4 4 2 6 1 2 6 4 5 5 9 20 21 21 20 26 26 27 28 27 29 29 20 8 9 8 11 11 11
6 4 2 3 1 7 4 3 4 5 5 9 9 10 2 5 5 3 4 5 5 4 4 4 5 13 15 17 17 19 16 24 26 21 25 26 27 27 22 18 14 17 16 13
3 2 5 2 3 4 5 8 9 10 11 12 5 3 4 1 4 4 4 4 6 5 5 3 5 15 14 14 15 17 21 13 16 19 16 20 21 19 20 20 17 16 17 18
4 2 1 3 6 7 9 9 9 11 12 11 4 2 3 5 4 4 6 4 4 3 2 4 7 9 11 12 15 16 16 17 14 10 11 11 14 16 18 16 15 20 19 20
3 3 6 7 9 10 10 10 10 11 11 11 5 5 5 6 4 5 7 5 3 4 2 2 6 10 10 11 11 12 13 13 15 13 15 10 8 12 13 15 14 15 11 12
3 4 6 8 8 9 9 9 9 11 9 8 5 7 6 4 5 4 2 2 5 6 4 3 4 8 9 9 10 11 11 11 12 12 12 13 10 11 11 12 8 8 11 12
Wind_Direction
328 333 338 339 336 339 330 306 299 332 328 292 325 309 338 338 319 334 337 307 302 319 327 308 307 296 304 330 323 289 241 234 246 247 209 207 210 217 208 222 213 245 268 282
323 328 333 337 337 345 330 311 298 310 334 311 341 335 317 331 335 321 315 289 309 307 303 293 294 315 324 309 322 358 352 240 229 242 235 191 213 207 222 211 228 222 241 225
320 322 327 331 333 331 329 305 315 341 327 344 338 325 318 310 40 339 345 307 318 321 307 301 309 320 313 321 299 321 287 260 249 229 231 207 193 212 209 226 208 225 217 150
316 316 321 328 324 323 307 342 296 330 310 326 317 307 315 307 280 295 212 290 320 306 308 312 298 304 321 324 314 329 256 262 250 241 237 224 194 208 213 216 214 219 215 208
314 315 318 323 318 321 268 308 331 337 302 285 299 302 330 282 319 310 317 314 281 302 309 303 315 312 303 299 321 333 336 273 283 266 267 273 270 198 213 216 226 204 238 207
312 314 318 318 312 321 312 171 279 274 276 289 290 288 322 322 316 304 304 272 306 301 337 297 295 283 267 259 285 308 318 339 294 254 249 247 243 245 201 217 213 223 216 230
310 311 314 313 309 282 273 237 148 219 268 279 275 288 305 298 299 291 301 304 289 296 309 302 287 267 256 246 262 273 296 307 300 278 275 246 257 224 255 235 216 211 225 219
309 309 310 310 305 290 275 206 174 190 257 257 283 280 290 282 304 297 276 273 297 288 292 279 279 270 231 233 238 248 260 284 293 256 239 228 250 219 215 236 225 260 220 224
308 308 312 311 304 291 279 236 172 172 253 225 269 304 297 307 301 291 2 280 316 291 290 278 275 299 318 203 219 221 234 242 279 299 273 222 247 243 189 208 231 288 284 336
309 311 311 309 307 298 281 265 189 160 229 263 265 244 273 296 313 306 317 342 309 287 262 292 276 281 291 297 195 185 201 247 236 243 264 268 352 358 91 170 58 24 28 14
312 310 311 308 307 301 294 257 182 182 212 273 253 254 255 271 279 299 327 321 343 352 307 315 16 320 311 286 43 186 195 195 223 237 241 236 46 341 35 42 53 35 33 26
311 315 313 310 307 303 301 251 185 203 177 286 332 294 265 261 261 269 299 303 314 20 342 356 339 311 299 319 294 164 195 233 255 244 243 293 346 5 8 27 35 30 26 11
316 317 317 314 311 304 276 252 119 94 336 288 265 271 246 226 244 251 271 293 342 357 349 315 313 309 326 325 314 331 300 316 282 266 276 296 310 326 330 341 348 346 335 343
319 318 318 317 315 299 251 173 153 105 69 299 16 35 345 194 224 225 230 254 300 315 337 330 301 302 323 315 319 312 308 310 299 294 293 286 289 290 299 307 308 307 309 306
319 320 321 322 315 298 255 181 159 134 263 335 323 316 13 2 356 267 206 251 267 308 322 263 294 323 334 328 299 286 301 312 306 301 310 314 306 301 290 268 264 270 277 278
320 324 327 320 306 232 130 142 99 132 134 251 287 119 0 341 350 3 17 317 62 69 67 280 251 245 285 266 259 282 293 298 293 284 287 289 289 289 298 301 285 277 280 277
317 330 337 343 260 276 5 16 61 136 145 245 291 14 110 351 22 58 55 51 51 46 297 249 271 261 205 269 269 275 277 269 262 259 265 267 259 259 268 269 278 278 278 278
319 338 183 321 82 120 122 84 112 0 231 246 9 334 274 14 22 84 77 68 53 165 300 259 261 308 197 254 289 302 305 301 302 238 239 245 255 261 259 262 265 267 276 273
294 168 207 246 236 26 71 126 187 246 279 40 36 357 346 16 99 130 141 140 112 83 274 255 279 299 343 306 337 336 342 356 342 12 353 243 233 244 246 247 256 259 250 262
149 207 218 191 52 117 123 104 227 230 186 177 180 116 286 176 60 252 172 191 208 311 83 175 45 339 355 356 359 358 6 15 5 7 358 288 228 226 230 239 245 255 262 251
219 216 59 80 155 216 217 256 312 358 31 178 238 208 295 173 302 313 237 353 202 27 39 358 355 358 353 358 9 9 8 13 26 28 15 5 324 244 240 237 245 257 259 256
353 356 166 156 215 7 346 10 353 349 350 321 304 337 192 143 165 216 198 240 159 57 31 21 359 350 345 351 8 18 15 13 17 18 11 15 21 43 80 79 88 87 70 51
236 228 46 45 278 37 68 326 293 300 277 302 313 350 127 190 207 236 331 32 55 84 41 5 347 344 349 351 359 12 38 26 13 19 15 16 20 33 52 57 57 69 65 60
258 79 10 57 305 324 10 345 335 342 330 313 351 107 254 320 57 2 32 58 41 39 6 354 314 335 352 353 3 8 8 33 42 15 15 34 28 22 38 49 44 53 55 47
7 104 2 341 331 24 12 360 344 346 321 319 311 88 313 37 52 39 40 25 47 62 316 278 327 326 352 357 13 2 10 4 10 41 38 38 49 49 40 33 41 53 51 50
14 15 21 359 1 4 7 358 358 347 328 318 50 47 40 23 58 38 20 30 341 337 1 17 306 9 357 357 1 6 359 0 1 18 15 33 92 82 68 51 45 47 61 74
37 328 3 30 11 4 5 2 358 337 359 5 20 22 44 54 47 31 59 343 325 346 26 18 360 5 354 347 340 4 359 0 2 2 20 21 38 54 71 75 73 91 105 94